| time (UTC) | temp C | wind direction | speed KPH | gust KPH | rain 1hr cm | rain 24hr cm | rain mn cm | humidity % | barometer mb |
| 20260503041005 | 18 | 84 | 0.0 | 0.0 | 0.00 | 0.00 | 0.00 | 76 | 1022.9 |
| 20260503040505 | 18 | 84 | 0.0 | 0.0 | 0.00 | 0.00 | 0.00 | 76 | 1022.9 |
| 20260503040005 | 18 | 84 | 0.0 | 0.0 | 0.00 | 0.00 | 0.00 | 75 | 1022.9 |
| 20260503035505 | 18 | 84 | 0.0 | 0.0 | 0.00 | 0.00 | 0.00 | 76 | 1022.9 |
| 20260503035212 | 18 | 84 | 0.0 | 0.0 | 0.00 | 0.00 | 0.00 | 75 | 1022.9 |
| 20260503034505 | 18 | 84 | 0.0 | 0.0 | 0.00 | 0.00 | 0.00 | 74 | 1023.2 |
| 20260503034005 | 18 | 84 | 0.0 | 0.0 | 0.00 | 0.00 | 0.00 | 74 | 1023.2 |
| 20260503033505 | 18 | 84 | 0.0 | 0.0 | 0.00 | 0.00 | 0.00 | 74 | 1022.9 |
| 20260503033005 | 18 | 84 | 0.0 | 0.0 | 0.00 | 0.00 | 0.00 | 74 | 1022.9 |
| 20260503032505 | 18 | 84 | 0.0 | 0.0 | 0.00 | 0.00 | 0.00 | 74 | 1022.9 |
| 20260503032004 | 18 | 84 | 0.0 | 0.0 | 0.00 | 0.00 | 0.00 | 73 | 1022.9 |
| 20260503031505 | 18 | 84 | 0.0 | 0.0 | 0.00 | 0.00 | 0.00 | 74 | 1022.9 |
| 20260503031005 | 18 | 84 | 0.0 | 0.0 | 0.00 | 0.00 | 0.00 | 73 | 1022.5 |
| 20260503030505 | 18 | 84 | 0.0 | 0.0 | 0.00 | 0.00 | 0.00 | 72 | 1022.5 |
| 20260503030005 | 18 | 84 | 0.0 | 0.0 | 0.00 | 0.00 | 0.00 | 72 | 1022.2 |
| 20260503025505 | 18 | 84 | 0.0 | 0.0 | 0.00 | 0.00 | 0.00 | 71 | 1022.5 |
| 20260503025005 | 18 | 84 | 0.0 | 0.0 | 0.00 | 0.00 | 0.00 | 71 | 1022.2 |
| 20260503024504 | 18 | 76 | 0.0 | 0.0 | 0.00 | 0.00 | 0.00 | 71 | 1022.2 |
| 20260503024212 | 18 | 75 | 0.0 | 0.0 | 0.00 | 0.00 | 0.00 | 70 | 1022.2 |
| 20260503023505 | 18 | 72 | 0.0 | 0.0 | 0.00 | 0.00 | 0.00 | 70 | 1021.8 |
| 20260503023005 | 18 | 72 | 0.0 | 0.0 | 0.00 | 0.00 | 0.00 | 69 | 1022.2 |
| 20260503022505 | 18 | 71 | 0.0 | 0.0 | 0.00 | 0.00 | 0.00 | 68 | 1021.8 |
| 20260503022005 | 18 | 81 | 0.0 | 0.0 | 0.00 | 0.00 | 0.00 | 68 | 1021.5 |
| 20260503021713 | 18 | 50 | 0.0 | 0.0 | 0.00 | 0.00 | 0.00 | 67 | 1021.5 |
| 20260503021005 | 19 | 86 | 0.0 | 0.0 | 0.00 | 0.00 | 0.00 | 67 | 1021.5 |
| 20260503020505 | 19 | 81 | 0.0 | 0.0 | 0.00 | 0.00 | 0.00 | 66 | 1021.5 |
| 20260503020004 | 19 | 65 | 0.0 | 0.0 | 0.00 | 0.00 | 0.00 | 66 | 1021.5 |
| 20260503015505 | 20 | 12 | 14.5 | 0.0 | 0.00 | 0.00 | 0.00 | 65 | 1021.5 |
| 20260503015005 | 20 | 55 | 0.0 | 0.0 | 0.00 | 0.00 | 0.00 | 65 | 1021.5 |
| 20260503014505 | 20 | 73 | 0.0 | 0.0 | 0.00 | 0.00 | 0.00 | 65 | 1021.5 |
| 20260503014005 | 20 | 22 | 14.5 | 0.0 | 0.00 | 0.00 | 0.00 | 65 | 1021.5 |
| 20260503013712 | 20 | 1 | 14.5 | 0.0 | 0.00 | 0.00 | 0.00 | 65 | 1021.5 |
| 20260503013005 | 20 | 118 | 6.4 | 0.0 | 0.00 | 0.00 | 0.00 | 64 | 1021.2 |
| 20260503012505 | 20 | 25 | 6.4 | 0.0 | 0.00 | 0.00 | 0.00 | 63 | 1021.2 |
| 20260503012213 | 20 | 44 | 6.4 | 0.0 | 0.00 | 0.00 | 0.00 | 62 | 1021.2 |
| 20260503011506 | 20 | 94 | 6.4 | 0.0 | 0.00 | 0.00 | 0.00 | 61 | 1021.2 |
| 20260503011005 | 20 | 358 | 14.5 | 0.0 | 0.00 | 0.00 | 0.00 | 62 | 1021.2 |
| 20260503010505 | 20 | 52 | 6.4 | 0.0 | 0.00 | 0.00 | 0.00 | 61 | 1021.2 |
| 20260503010005 | 20 | 91 | 6.4 | 0.0 | 0.00 | 0.00 | 0.00 | 61 | 1020.8 |
| 20260503005505 | 20 | 44 | 6.4 | 0.0 | 0.00 | 0.00 | 0.00 | 61 | 1020.8 |
| 20260503005211 | 21 | 49 | 0.0 | 0.0 | 0.00 | 0.00 | 0.00 | 61 | 1020.8 |
| 20260503004505 | 21 | 58 | 6.4 | 0.0 | 0.00 | 0.00 | 0.00 | 60 | 1020.8 |
| 20260503004211 | 21 | 74 | 6.4 | 0.0 | 0.00 | 0.00 | 0.00 | 58 | 1020.5 |
| 20260503003505 | 21 | 63 | 6.4 | 0.0 | 0.00 | 0.00 | 0.00 | 58 | 1020.8 |
| 20260503003005 | 21 | 36 | 6.4 | 0.0 | 0.00 | 0.00 | 0.00 | 58 | 1020.5 |
| 20260503002505 | 21 | 50 | 0.0 | 0.0 | 0.00 | 0.00 | 0.00 | 58 | 1020.8 |
| 20260503002005 | 21 | 21 | 14.5 | 0.0 | 0.00 | 0.00 | 0.00 | 58 | 1020.8 |
| 20260503001505 | 21 | 68 | 0.0 | 0.0 | 0.00 | 0.00 | 0.00 | 57 | 1020.8 |
| 20260503001005 | 21 | 62 | 20.9 | 0.0 | 0.00 | 0.00 | 0.00 | 56 | 1020.5 |
| 20260503000505 | 21 | 42 | 14.5 | 0.0 | 0.00 | 0.00 | 0.00 | 56 | 1020.8 |
| 20260503000213 | 21 | 131 | 6.4 | 0.0 | 0.00 | 0.00 | 0.00 | 57 | 1020.5 |
| 20260502235505 | 21 | 258 | 20.9 | 0.0 | 0.00 | 0.00 | 0.00 | 56 | 1020.5 |
| 20260502235005 | 22 | 62 | 0.0 | 0.0 | 0.00 | 0.00 | 0.00 | 55 | 1020.5 |
| 20260502234505 | 22 | 65 | 6.4 | 0.0 | 0.00 | 0.00 | 0.00 | 54 | 1020.1 |
| 20260502234005 | 22 | 354 | 20.9 | 0.0 | 0.00 | 0.00 | 0.00 | 54 | 1020.1 |
| 20260502233505 | 22 | 294 | 14.5 | 0.0 | 0.00 | 0.00 | 0.00 | 55 | 1020.1 |
| 20260502233005 | 22 | 22 | 14.5 | 0.0 | 0.00 | 0.00 | 0.00 | 54 | 1020.1 |
| 20260502232504 | 22 | 305 | 6.4 | 0.0 | 0.00 | 0.00 | 0.00 | 53 | 1020.1 |
| 20260502232005 | 22 | 198 | 6.4 | 0.0 | 0.00 | 0.00 | 0.00 | 55 | 1020.1 |
| 20260502231505 | 21 | 33 | 6.4 | 0.0 | 0.00 | 0.00 | 0.00 | 56 | 1019.8 |
| 20260502231005 | 21 | 11 | 20.9 | 0.0 | 0.00 | 0.00 | 0.00 | 55 | 1019.8 |
| 20260502230505 | 21 | 37 | 6.4 | 0.0 | 0.00 | 0.00 | 0.00 | 57 | 1019.8 |
| 20260502230005 | 21 | 6 | 20.9 | 0.0 | 0.00 | 0.00 | 0.00 | 55 | 1020.1 |
| 20260502225505 | 22 | 331 | 37.0 | 0.0 | 0.00 | 0.00 | 0.00 | 55 | 1020.1 |
| 20260502225004 | 22 | 324 | 20.9 | 0.0 | 0.00 | 0.00 | 0.00 | 55 | 1020.1 |
| 20260502224505 | 22 | 54 | 20.9 | 0.0 | 0.00 | 0.00 | 0.00 | 56 | 1020.1 |
| 20260502224005 | 22 | 200 | 6.4 | 0.0 | 0.00 | 0.00 | 0.00 | 56 | 1019.8 |
| 20260502223505 | 22 | 14 | 20.9 | 0.0 | 0.00 | 0.00 | 0.00 | 54 | 1019.8 |
| 20260502223212 | 22 | 31 | 20.9 | 0.0 | 0.00 | 0.00 | 0.00 | 54 | 1019.8 |
| 20260502222713 | 22 | 29 | 6.4 | 0.0 | 0.00 | 0.00 | 0.00 | 55 | 1020.1 |
| 20260502222212 | 22 | 264 | 6.4 | 0.0 | 0.00 | 0.00 | 0.00 | 55 | 1020.1 |
| 20260502221505 | 21 | 60 | 20.9 | 0.0 | 0.00 | 0.00 | 0.00 | 56 | 1020.1 |
| 20260502221005 | 22 | 38 | 20.9 | 0.0 | 0.00 | 0.00 | 0.00 | 55 | 1020.1 |
| 20260502220713 | 22 | 337 | 29.0 | 0.0 | 0.00 | 0.00 | 0.00 | 54 | 1019.8 |
| 20260502220004 | 21 | 128 | 6.4 | 0.0 | 0.00 | 0.00 | 0.00 | 57 | 1020.1 |
| 20260502215505 | 21 | 73 | 14.5 | 0.0 | 0.00 | 0.00 | 0.00 | 57 | 1020.1 |
| 20260502215005 | 22 | 75 | 29.0 | 0.0 | 0.00 | 0.00 | 0.00 | 56 | 1020.1 |
| 20260502214713 | 22 | 11 | 6.4 | 0.0 | 0.00 | 0.00 | 0.00 | 55 | 1020.1 |
| 20260502214005 | 22 | 57 | 20.9 | 0.0 | 0.00 | 0.00 | 0.00 | 55 | 1020.1 |
| 20260502213505 | 22 | 350 | 0.0 | 0.0 | 0.00 | 0.00 | 0.00 | 58 | 1020.5 |
| 20260502213005 | 22 | 343 | 20.9 | 0.0 | 0.00 | 0.00 | 0.00 | 57 | 1020.1 |
| 20260502212505 | 22 | 4 | 6.4 | 0.0 | 0.00 | 0.00 | 0.00 | 58 | 1020.1 |
| 20260502212005 | 22 | 325 | 20.9 | 0.0 | 0.00 | 0.00 | 0.00 | 57 | 1020.5 |
| 20260502211505 | 23 | 44 | 6.4 | 0.0 | 0.00 | 0.00 | 0.00 | 55 | 1020.5 |
| 20260502211005 | 23 | 216 | 14.5 | 0.0 | 0.00 | 0.00 | 0.00 | 56 | 1020.5 |
| 20260502210505 | 23 | 10 | 37.0 | 0.0 | 0.00 | 0.00 | 0.00 | 54 | 1020.1 |
| 20260502210004 | 22 | 301 | 6.4 | 0.0 | 0.00 | 0.00 | 0.00 | 56 | 1020.5 |
| 20260502205713 | 22 | 5 | 20.9 | 0.0 | 0.00 | 0.00 | 0.00 | 58 | 1020.5 |
| 20260502205212 | 22 | 308 | 6.4 | 0.0 | 0.00 | 0.00 | 0.00 | 61 | 1020.5 |
| 20260502204505 | 22 | 188 | 0.0 | 0.0 | 0.00 | 0.00 | 0.00 | 58 | 1020.5 |
| 20260502204005 | 22 | 2 | 14.5 | 0.0 | 0.00 | 0.00 | 0.00 | 59 | 1020.5 |
| 20260502203505 | 21 | 33 | 14.5 | 0.0 | 0.00 | 0.00 | 0.00 | 60 | 1020.8 |
| 20260502203211 | 22 | 346 | 20.9 | 0.0 | 0.00 | 0.00 | 0.00 | 60 | 1020.8 |
| 20260502202505 | 22 | 19 | 6.4 | 0.0 | 0.00 | 0.00 | 0.00 | 58 | 1020.5 |
| 20260502202005 | 21 | 268 | 14.5 | 0.0 | 0.00 | 0.00 | 0.00 | 62 | 1020.8 |
| 20260502201505 | 21 | 359 | 14.5 | 0.0 | 0.00 | 0.00 | 0.00 | 63 | 1020.8 |
| 20260502201005 | 21 | 41 | 20.9 | 0.0 | 0.00 | 0.00 | 0.00 | 63 | 1020.8 |
| 20260502200505 | 21 | 64 | 6.4 | 0.0 | 0.00 | 0.00 | 0.00 | 62 | 1021.2 |
| 20260502200213 | 21 | 60 | 14.5 | 0.0 | 0.00 | 0.00 | 0.00 | 62 | 1020.8 |
| 20260502195505 | 21 | 4 | 29.0 | 0.0 | 0.00 | 0.00 | 0.00 | 63 | 1021.2 |
| 20260502195005 | 21 | 185 | 14.5 | 0.0 | 0.00 | 0.00 | 0.00 | 64 | 1021.2 |
| 20260502194504 | 21 | 296 | 20.9 | 0.0 | 0.00 | 0.00 | 0.00 | 64 | 1021.2 |
| 20260502194005 | 21 | 302 | 20.9 | 0.0 | 0.00 | 0.00 | 0.00 | 64 | 1021.2 |
| 20260502193505 | 21 | 200 | 0.0 | 0.0 | 0.00 | 0.00 | 0.00 | 66 | 1021.2 |
| 20260502193005 | 21 | 145 | 0.0 | 0.0 | 0.00 | 0.00 | 0.00 | 65 | 1021.5 |
| 20260502192712 | 20 | 34 | 6.4 | 0.0 | 0.00 | 0.00 | 0.00 | 66 | 1021.5 |
| 20260502192005 | 20 | 236 | 20.9 | 0.0 | 0.00 | 0.00 | 0.00 | 66 | 1021.5 |
| 20260502191505 | 20 | 302 | 20.9 | 0.0 | 0.00 | 0.00 | 0.00 | 66 | 1021.2 |
| 20260502191005 | 20 | 168 | 6.4 | 0.0 | 0.00 | 0.00 | 0.00 | 67 | 1021.5 |
| 20260502190505 | 20 | 66 | 6.4 | 0.0 | 0.00 | 0.00 | 0.00 | 68 | 1021.5 |
| 20260502190005 | 20 | 244 | 20.9 | 0.0 | 0.00 | 0.00 | 0.00 | 66 | 1021.5 |
| 20260502185505 | 20 | 20 | 6.4 | 0.0 | 0.00 | 0.00 | 0.00 | 66 | 1021.5 |
| 20260502185004 | 20 | 245 | 14.5 | 0.0 | 0.00 | 0.00 | 0.00 | 68 | 1021.5 |
| 20260502184505 | 20 | 213 | 14.5 | 0.0 | 0.00 | 0.00 | 0.00 | 68 | 1021.5 |
| 20260502184213 | 20 | 226 | 29.0 | 0.0 | 0.00 | 0.00 | 0.00 | 68 | 1021.5 |
| 20260502183505 | 20 | 306 | 37.0 | 0.0 | 0.00 | 0.00 | 0.00 | 69 | 1021.5 |
| 20260502183005 | 20 | 192 | 6.4 | 0.0 | 0.00 | 0.00 | 0.00 | 70 | 1021.8 |
| 20260502182504 | 20 | 124 | 14.5 | 0.0 | 0.00 | 0.00 | 0.00 | 69 | 1021.8 |
| 20260502182213 | 20 | 11 | 29.0 | 0.0 | 0.00 | 0.00 | 0.00 | 69 | 1021.5 |
| 20260502181505 | 20 | 202 | 14.5 | 0.0 | 0.00 | 0.00 | 0.00 | 70 | 1021.8 |
| 20260502181005 | 20 | 308 | 14.5 | 0.0 | 0.00 | 0.00 | 0.00 | 68 | 1021.8 |
| 20260502180505 | 20 | 218 | 14.5 | 0.0 | 0.00 | 0.00 | 0.00 | 70 | 1021.8 |
| 20260502180212 | 20 | 6 | 14.5 | 0.0 | 0.00 | 0.00 | 0.00 | 70 | 1021.8 |
| 20260502170505 | 18 | 302 | 20.9 | 0.0 | 0.00 | 0.00 | 0.00 | 76 | 1022.5 |
| 20260502164005 | 18 | 9 | 14.5 | 0.0 | 0.00 | 0.00 | 0.00 | 76 | 1022.5 |
| 20260502163505 | 18 | 198 | 20.9 | 0.0 | 0.00 | 0.00 | 0.00 | 75 | 1022.5 |
| 20260502163212 | 17 | 344 | 6.4 | 0.0 | 0.00 | 0.00 | 0.00 | 77 | 1022.2 |
| 20260502162505 | 17 | 283 | 6.4 | 0.0 | 0.00 | 0.00 | 0.00 | 78 | 1022.2 |
| 20260502162004 | 17 | 275 | 14.5 | 0.0 | 0.00 | 0.00 | 0.00 | 78 | 1022.2 |
| 20260502161505 | 17 | 350 | 20.9 | 0.0 | 0.00 | 0.00 | 0.00 | 79 | 1022.5 |
| 20260502161005 | 17 | 182 | 14.5 | 0.0 | 0.00 | 0.00 | 0.00 | 78 | 1022.2 |
| 20260502160713 | 17 | 139 | 6.4 | 0.0 | 0.00 | 0.00 | 0.00 | 79 | 1022.5 |
| 20260502152005 | 17 | 48 | 20.9 | 0.0 | 0.00 | 0.00 | 0.00 | 78 | 1021.8 |
| 20260502151505 | 16 | 315 | 14.5 | 0.0 | 0.00 | 0.00 | 0.00 | 79 | 1021.8 |
| 20260502151005 | 16 | 271 | 20.9 | 0.0 | 0.00 | 0.00 | 0.00 | 80 | 1021.8 |
| 20260502150712 | 16 | 278 | 14.5 | 0.0 | 0.00 | 0.00 | 0.00 | 80 | 1021.8 |
| 20260502150211 | 16 | 234 | 6.4 | 0.0 | 0.00 | 0.00 | 0.00 | 81 | 1021.8 |
| 20260502130505 | 16 | 42 | 0.0 | 0.0 | 0.00 | 0.00 | 0.00 | 84 | 1020.1 |
| 20260502123505 | 16 | 226 | 6.4 | 0.0 | 0.00 | 0.00 | 0.00 | 83 | 1019.8 |
| 20260502123005 | 16 | 67 | 0.0 | 0.0 | 0.00 | 0.00 | 0.00 | 83 | 1019.5 |
| 20260502122505 | 16 | 170 | 14.5 | 0.0 | 0.00 | 0.00 | 0.00 | 83 | 1019.5 |
| 20260502122212 | 16 | 21 | 14.5 | 0.0 | 0.00 | 0.00 | 0.00 | 83 | 1019.5 |
| 20260502121505 | 16 | 351 | 20.9 | 0.0 | 0.00 | 0.00 | 0.00 | 83 | 1019.5 |
| 20260502121005 | 16 | 247 | 6.4 | 0.0 | 0.00 | 0.00 | 0.00 | 83 | 1019.1 |
| 20260502120505 | 16 | 283 | 20.9 | 0.0 | 0.00 | 0.00 | 0.00 | 83 | 1019.5 |
| 20260502120212 | 16 | 226 | 14.5 | 0.0 | 0.00 | 0.00 | 0.00 | 83 | 1019.1 |
| 20260502115713 | 16 | 30 | 14.5 | 0.0 | 0.00 | 0.00 | 0.00 | 83 | 1018.8 |
| 20260502115004 | 16 | 291 | 20.9 | 0.0 | 0.00 | 0.00 | 0.00 | 83 | 1019.1 |
| 20260502114505 | 16 | 296 | 0.0 | 0.0 | 0.00 | 0.00 | 0.00 | 83 | 1019.1 |
| 20260502114005 | 16 | 187 | 6.4 | 0.0 | 0.00 | 0.00 | 0.00 | 83 | 1018.8 |
| 20260502113505 | 16 | 333 | 6.4 | 0.0 | 0.00 | 0.00 | 0.00 | 83 | 1018.8 |
| 20260502113005 | 16 | 328 | 14.5 | 0.0 | 0.00 | 0.00 | 0.00 | 83 | 1018.4 |
| 20260502112713 | 16 | 193 | 6.4 | 0.0 | 0.00 | 0.00 | 0.00 | 83 | 1018.4 |
| 20260502112005 | 16 | 330 | 14.5 | 0.0 | 0.00 | 0.00 | 0.00 | 83 | 1018.1 |
| 20260502111505 | 16 | 241 | 20.9 | 0.0 | 0.00 | 0.00 | 0.00 | 83 | 1018.4 |
| 20260502111005 | 16 | 28 | 6.4 | 0.0 | 0.00 | 0.00 | 0.00 | 83 | 1018.1 |
| 20260502110504 | 16 | 10 | 20.9 | 0.0 | 0.00 | 0.00 | 0.00 | 84 | 1018.1 |
| 20260502110005 | 16 | 334 | 14.5 | 0.0 | 0.00 | 0.00 | 0.00 | 84 | 1018.1 |
| 20260502105713 | 16 | 317 | 20.9 | 0.0 | 0.00 | 0.00 | 0.00 | 84 | 1017.8 |
| 20260502105005 | 16 | 29 | 20.9 | 0.0 | 0.00 | 0.00 | 0.00 | 83 | 1017.8 |
| 20260502104505 | 16 | 36 | 6.4 | 0.0 | 0.00 | 0.00 | 0.00 | 83 | 1017.8 |
| 20260502104004 | 16 | 329 | 20.9 | 0.0 | 0.00 | 0.00 | 0.00 | 84 | 1017.8 |
| 20260502103713 | 16 | 342 | 14.5 | 0.0 | 0.00 | 0.00 | 0.00 | 84 | 1017.4 |
| 20260502103212 | 16 | 15 | 14.5 | 0.0 | 0.00 | 0.00 | 0.00 | 84 | 1017.4 |
| 20260502102505 | 16 | 164 | 14.5 | 0.0 | 0.00 | 0.00 | 0.00 | 85 | 1017.8 |
| 20260502102004 | 16 | 319 | 14.5 | 0.0 | 0.00 | 0.00 | 0.00 | 85 | 1017.4 |
| 20260502101713 | 16 | 253 | 20.9 | 0.0 | 0.00 | 0.00 | 0.00 | 85 | 1017.4 |
| 20260502101005 | 16 | 204 | 14.5 | 0.0 | 0.00 | 0.00 | 0.00 | 85 | 1017.4 |
| 20260502100712 | 16 | 304 | 0.0 | 0.0 | 0.00 | 0.00 | 0.00 | 85 | 1017.4 |
| 20260502091505 | 17 | 100 | 6.4 | 0.0 | 0.00 | 0.00 | 0.00 | 85 | 1017.1 |
| 20260502091005 | 17 | 219 | 6.4 | 0.0 | 0.00 | 0.00 | 0.00 | 85 | 1017.1 |
| 20260502090505 | 17 | 207 | 14.5 | 0.0 | 0.00 | 0.00 | 0.00 | 86 | 1016.7 |
| 20260502071505 | 18 | 286 | 43.5 | 0.0 | 0.00 | 0.00 | 0.00 | 82 | 1015.4 |
| 20260502071005 | 18 | 174 | 14.5 | 0.0 | 0.00 | 0.00 | 0.00 | 82 | 1015.4 |
| 20260502070505 | 18 | 42 | 37.0 | 0.0 | 0.00 | 0.00 | 0.00 | 82 | 1015.4 |
| 20260502070212 | 18 | 338 | 82.1 | 0.0 | 0.00 | 0.00 | 0.00 | 82 | 1015.7 |
| 20260502065505 | 18 | 312 | 37.0 | 0.0 | 0.00 | 0.00 | 0.00 | 82 | 1015.7 |
| 20260502065005 | 18 | 265 | 37.0 | 0.0 | 0.00 | 0.00 | 0.00 | 82 | 1015.7 |
| 20260502064505 | 18 | 24 | 43.5 | 0.0 | 0.00 | 0.00 | 0.00 | 82 | 1016.1 |
| 20260502064005 | 18 | 228 | 14.5 | 0.0 | 0.00 | 0.00 | 0.00 | 82 | 1015.7 |
| 20260502063713 | 18 | 232 | 20.9 | 0.0 | 0.00 | 0.00 | 0.00 | 82 | 1016.1 |
| 20260502063005 | 18 | 340 | 20.9 | 0.0 | 0.00 | 0.00 | 0.00 | 82 | 1016.1 |
| 20260502062713 | 18 | 45 | 37.0 | 0.0 | 0.00 | 0.00 | 0.00 | 82 | 1016.1 |
| 20260502062005 | 18 | 331 | 29.0 | 0.0 | 0.00 | 0.00 | 0.00 | 82 | 1016.1 |
| 20260502061505 | 18 | 61 | 14.5 | 0.0 | 0.00 | 0.00 | 0.00 | 82 | 1016.1 |
| 20260502061005 | 18 | 12 | 29.0 | 0.0 | 0.00 | 0.00 | 0.00 | 82 | 1016.1 |
| 20260502060505 | 18 | 198 | 29.0 | 0.0 | 0.00 | 0.00 | 0.00 | 81 | 1015.7 |
| 20260502060005 | 18 | 345 | 43.5 | 0.0 | 0.00 | 0.00 | 0.00 | 81 | 1016.1 |
| 20260502055505 | 18 | 167 | 14.5 | 0.0 | 0.00 | 0.00 | 0.00 | 81 | 1015.7 |
| 20260502055212 | 18 | 226 | 37.0 | 0.0 | 0.00 | 0.00 | 0.00 | 80 | 1016.1 |
| 20260502054505 | 18 | 38 | 29.0 | 0.0 | 0.00 | 0.00 | 0.00 | 80 | 1016.1 |
| 20260502054212 | 18 | 272 | 6.4 | 0.0 | 0.00 | 0.00 | 0.00 | 80 | 1015.7 |
| 20260502053504 | 18 | 166 | 20.9 | 0.0 | 0.00 | 0.00 | 0.00 | 80 | 1015.7 |
| 20260502053005 | 18 | 294 | 37.0 | 0.0 | 0.00 | 0.00 | 0.00 | 80 | 1015.7 |
| 20260502052713 | 19 | 308 | 6.4 | 0.0 | 0.00 | 0.00 | 0.00 | 80 | 1015.7 |
| 20260502052005 | 19 | 61 | 14.5 | 0.0 | 0.00 | 0.00 | 0.00 | 79 | 1015.7 |
| 20260502051505 | 19 | 215 | 29.0 | 0.0 | 0.00 | 0.00 | 0.00 | 79 | 1015.7 |
| 20260502051214 | 19 | 47 | 29.0 | 0.0 | 0.00 | 0.00 | 0.00 | 79 | 1015.7 |
| 20260502050505 | 19 | 168 | 29.0 | 0.0 | 0.00 | 0.00 | 0.00 | 80 | 1015.7 |
| 20260502045505 | 19 | 244 | 20.9 | 0.0 | 0.00 | 0.00 | 0.00 | 80 | 1015.7 |
| 20260502045005 | 19 | 34 | 14.5 | 0.0 | 0.00 | 0.00 | 0.00 | 80 | 1015.4 |
| 20260502044505 | 19 | 83 | 6.4 | 0.0 | 0.00 | 0.00 | 0.00 | 79 | 1015.4 |
| 20260502044005 | 19 | 309 | 37.0 | 0.0 | 0.00 | 0.00 | 0.00 | 79 | 1015.4 |
| 20260502043505 | 19 | 358 | 37.0 | 0.0 | 0.00 | 0.00 | 0.00 | 78 | 1015.0 |
| 20260502043004 | 19 | 330 | 43.5 | 0.0 | 0.00 | 0.00 | 0.00 | 78 | 1015.0 |
| 20260502042505 | 19 | 323 | 20.9 | 0.0 | 0.00 | 0.00 | 0.00 | 78 | 1015.0 |
| 20260502042005 | 19 | 252 | 29.0 | 0.0 | 0.00 | 0.00 | 0.00 | 78 | 1015.4 |
| 20260502041505 | 20 | 97 | 20.9 | 0.0 | 0.00 | 0.00 | 0.00 | 78 | 1015.0 |